This is the latest recevied weather packets stored in our database for station/object DELTON-WX. If no packets are shown the sender has not sent any weather packets the latest 10 day(s).
| Time | Temp. | Humidity | Pressure | Rain* | Wind** | Luminosity | Snow |
|---|---|---|---|---|---|---|---|
| 1777875349 | 7.78° C | 78% | 973 hPa | 0 mm | - | - | - |
| 1777874490 | 7.78° C | 78% | 973 hPa | 0 mm | - | - | - |
| 1777873544 | 7.78° C | 78% | 973.8 hPa | 0 mm | - | - | - |
| 1777872666 | 7.78° C | 78% | 973.3 hPa | 0 mm | - | - | - |
| 1777871748 | 7.78° C | 78% | 973.3 hPa | 0 mm | - | - | - |
| 1777870883 | 7.78° C | 78% | 973.3 hPa | 0 mm | - | - | - |
| 1777869945 | 7.78° C | 78% | 973.9 hPa | 0 mm | - | - | - |
| 1777869069 | 7.78° C | 80% | 973.8 hPa | 0 mm | - | - | - |
| 1777868145 | 7.78° C | 80% | 973.8 hPa | 0 mm | - | - | - |
| 1777867286 | 7.78° C | 80% | 973.8 hPa | 0 mm | - | - | - |
| 1777866345 | 7.78° C | 78% | 974.2 hPa | 0 mm | - | - | - |
| 1777865466 | 7.78° C | 80% | 974.6 hPa | 0 mm | - | - | - |
| 1777864547 | 7.78° C | 80% | 974.6 hPa | 0 mm | - | - | - |
| 1777863680 | 7.78° C | 80% | 974.6 hPa | 0 mm | - | - | - |
| 1777862745 | 7.78° C | 75% | 974.2 hPa | 0 mm | - | - | - |
| 1777861861 | 8.33° C | 78% | 974.5 hPa | 0 mm | - | - | - |
| 1777860945 | 8.33° C | 78% | 974.5 hPa | 0 mm | - | - | - |
| 1777860079 | 8.33° C | 78% | 974.5 hPa | 0 mm | - | - | - |
| 1777859145 | 8.33° C | 75% | 975 hPa | 0 mm | - | - | - |
| 1777858264 | 8.33° C | 75% | 975 hPa | 0 mm | - | - | - |
| 1777857344 | 8.33° C | 75% | 975 hPa | 0 mm | - | - | - |
| 1777856477 | 8.89° C | 75% | 975 hPa | 0 mm | - | - | - |
| 1777855545 | 8.89° C | 71% | 975.7 hPa | 0 mm | - | - | - |
| 1777854664 | 9.44° C | 73% | 976.1 hPa | 0 mm | - | - | - |
| 1777853745 | 10° C | 73% | 976.1 hPa | 0 mm | - | - | - |
* Rain latest hour (hover to see other rain measurements)
** Current wind speed in m/s (hover to see current wind gust speed)